User: anonymous   Login
Location: Theodore Roosevelt Nature Center
(40.5943°N, 73.5104°W)
Time: 08:55:05
(UTC-05:00)
Language:

TIGRISAT - Orbit

View from above orbital plane
View from above orbital plane
View from above satellite
View from above satellite

Ground track
Ground track

The orbit data is extracted from the following two-line orbital elements,

1 40043U 14033AK  19349.88841283 +.00000094 +00000-0 +21301-4 0  9994
2 40043 097.7306 209.7855 0058747 234.3625 125.2105 14.74321938294853
Epoch (UTC): 15 December 2019 21:19:18
Eccentricity: 0.0058747
inclination: 97.7306°
perigee height: 606 km
apogee height: 688 km
right ascension of ascending node: 209.7855°
argument of perigee: 234.3625°
revolutions per day: 14.74321938
mean anomaly at epoch: 125.2105°
orbit number at epoch: 29485

The dashed part of the orbit path shows where the satellite is in the earth's shadow,  

DLR